Location: Newark
(40.7066°N, 111.8219°W)
Time: 20:20:08
(UTC+00:00)

Transit 2A Rocket - Pass Details

Date: 25 November 2019
Orbit: 594 x 909 km, 66.7° (Epoch: 05 December)

Event Time Altitude Azimuth Distance (km) Brightness Sun altitude
Rises 12:03:08 0° 335° (NNW) 2,853 - -26.6°
Reaches altitude 10° 12:05:24 10° 340° (NNW) 1,963 - -26.1°
Exits shadow 12:08:46 43° 18° (NNE) 880 5.3 -25.5°
Maximum altitude 12:09:40 50° 57° (ENE) 798 5.3 -25.3°
Drops below altitude 10° 12:14:12 10° 133° (SE) 2,073 7.9 -24.5°
Sets 12:16:38 0° 139° (SE) 3,030 8.8 -24.0°
